"2010-11-18 00:00:00",345901,8.06,241.1,6.17,0.669,6.437,100.4406,0.424,1.646,51.67,0,109.5,13.59,1.18,203.1
"2010-11-18 00:00:30",345902,7.521,248.9,4.31,0.933,6.403,100.4403,0.423,1.62,52.17,0,109.5,13.59,1.18,210.9
"2010-11-18 00:01:00",345903,7.43,250.1,3.739,0.801,6.293,100.4409,0.425,1.594,52.62,0,109.5,13.59,1.18,212.1
"2010-11-18 00:01:30",345904,6.496,256.6,5.779,1.247,4.839,100.4647,0.485,1.494,52.8,0,109.5,13.58,1.24,218.6
"2010-11-18 00:02:00",345905,5.73,251.9,8.18,1.147,3.59,100.4785,0.521,1.442,52.69,0,109.5,13.58,1.27,213.9
"2010-11-18 00:02:30",345906,5.16,242,8.45,0.967,3.326,100.5006,0.577,1.507,52.57,0,109.5,13.58,1.33,204.0
"2010-11-18 00:03:00",345907,7.065,249.4,5.942,0.672,6.93,100.5097,0.6,1.643,52.47,0,109.5,13.58,1.35,211.4
"2010-11-18 00:03:30",345908,7.177,254.3,3.024,0.767,7.321,100.5134,0.609,1.721,52.6,0,109.5,13.58,1.36,216.3
"2010-11-18 00:04:00",345909,7.065,254.7,3.631,0.758,7.224,100.5482,0.698,1.765,52.53,0,109.5,13.58,1.45,216.7
"2010-11-18 00:04:30",345910,6.708,252,6.129,0.962,5.956,100.5774,0.773,1.763,52.15,0,109.5,13.58,1.53,214.0
"2010-11-18 00:05:00",345911,6.4,253.8,7.12,1.163,5.286,100.5776,0.773,1.743,51.9,0,109.5,13.58,1.53,215.8
"2010-11-18 00:05:30",345912,5.609,244.4,5.041,0.961,3.471,100.5791,0.777,1.696,51.98,0,109.5,13.58,1.53,206.4
"2010-11-18 00:06:00",345913,5.827,245.8,5.811,1.334,4.754,100.6054,0.844,1.725,51.9,0,109.5,13.58,1.60,207.8
"2010-11-18 00:06:30",345914,7.117,251,4.438,0.34,7.416,100.6116,0.86,1.905,51.89,0,109.5,13.59,1.62,213.0
"2010-11-18 00:07:00",345915,7.235,250,2.227,0.851,6.981,100.6116,0.86,1.963,51.68,0,109.5,13.59,1.62,212.0
"2010-11-18 00:07:30",345916,7.521,244.6,2.82,0.81,6.869,100.6116,0.86,1.947,51.6,0,109.6,13.59,1.62,206.6
"2010-11-18 00:08:00",345917,7.48,240.4,6.077,1.202,6.167,100.6116,0.86,1.918,51.45,0,109.5,13.59,1.62,202.4
"2010-11-18 00:08:30",345918,6.199,241.7,8.35,1.244,4.736,100.6181,0.877,1.846,51.33,0,109.6,13.59,1.63,203.7
"2010-11-18 00:09:00",345919,6.237,244.7,5.48,1.207,4.839,100.6337,0.916,1.864,51.24,0,109.5,13.59,1.67,206.7
"2010-11-18 00:09:30",345920,6.518,245.3,7.407,1.123,4.873,100.6456,0.947,1.888,51.16,0,109.5,13.59,1.70,207.3
"2010-11-18 00:10:00",345921,7.441,249,4.612,0.826,7.18,100.6456,0.947,2.044,51.19,0,109.5,13.59,1.70,211.0
"2010-11-18 00:10:30",345922,7.295,256.8,4.708,0.66,7.387,100.6459,0.947,2.062,51.15,0,109.5,13.59,1.70,218.8
"2010-11-18 00:11:00",345923,6.761,258.3,5.212,1.031,6.411,100.6504,0.959,2.055,51.24,0,109.5,13.59,1.71,220.3
"2010-11-18 00:11:30",345924,6.235,256.7,6.21,1.232,5.838,100.6566,0.975,2.041,51.08,0,109.5,13.59,1.73,218.7
"2010-11-18 00:12:00",345925,5.835,249.5,5.104,1.071,3.415,100.6615,0.987,1.834,50.64,0,109.5,13.59,1.74,211.5
"2010-11-18 00:12:30",345926,6.934,256.8,5.417,1.019,6.523,100.6637,0.993,2.032,50.69,0,109.5,13.59,1.75,218.8
"2010-11-18 00:13:00",345927,7.19,254.4,4.674,0.708,7.091,100.6728,1.016,2.112,50.69,0,109.5,13.59,1.77,216.4
"2010-11-18 00:13:30",345928,7.215,252,4.189,0.669,7.298,100.6796,1.033,2.126,50.61,0,109.5,13.59,1.79,214.0
"2010-11-18 00:14:00",345929,7.242,252.7,3.404,0.64,7.136,100.6796,1.033,2.142,50.53,0,109.5,13.59,1.79,214.7
"2010-11-18 00:14:30",345930,6.06,241,5.761,1.153,4.621,100.6796,1.033,2.053,50.42,0,109.5,13.59,1.79,203.0
"2010-11-18 00:15:00",345931,6.253,243,5.657,1.251,4.283,100.6796,1.033,1.945,50.28,0,109.5,13.59,1.79,205.0
"2010-11-18 00:15:30",345932,6.191,242.7,5.956,1.196,4.445,100.6796,1.033,2.063,50.39,0,109.5,13.59,1.79,204.7
"2010-11-18 00:16:00",345933,7.353,249.9,3.781,0.766,7.214,100.6796,1.033,2.18,50.51,0,109.5,13.59,1.79,211.9
"2010-11-18 00:16:30",345934,7.399,251.9,3.221,0.639,7.434,100.6796,1.033,2.18,50.57,0,109.5,13.59,1.79,213.9
"2010-11-18 00:17:00",345935,7.079,248.8,5.771,0.963,6.771,100.6796,1.033,2.173,50.55,0,109.5,13.59,1.79,210.8
"2010-11-18 00:17:30",345936,6.962,248.7,5.157,1.133,6.157,100.6801,1.035,2.192,50.64,0,109.5,13.59,1.79,210.7
"2010-11-18 00:18:00",345937,6.107,239.5,6.333,1.149,3.842,100.6804,1.036,1.938,50.34,0,109.5,13.59,1.79,201.5
"2010-11-18 00:18:30",345938,6.851,241,5.698,1.151,5.813,100.6855,1.049,2.101,50.44,0,109.5,13.59,1.80,203.0
"2010-11-18 00:19:00",345939,6.947,239.3,5.905,1.161,6.493,100.6943,1.071,2.146,50.23,0,109.5,13.59,1.83,201.3
"2010-11-18 00:19:30",345940,7.527,236.5,4.002,0.763,7.481,100.6957,1.075,2.211,50.34,0,109.5,13.59,1.83,198.5
"2010-11-18 00:20:00",345941,7.54,236.2,4.097,0.657,7.502,100.7002,1.086,2.232,50.29,0,109.5,13.59,1.84,198.2
"2010-11-18 00:20:30",345942,7.38,237.5,3.967,0.675,7.571,100.713,1.119,2.229,50.14,0,109.5,13.58,1.87,199.5
"2010-11-18 00:21:00",345943,5.961,232.5,6.375,1.115,4.944,100.7135,1.12,2.163,49.97,0,109.5,13.58,1.88,194.5
"2010-11-18 00:21:30",345944,6.701,235.5,6.166,1.228,5.261,100.7135,1.12,2.119,49.91,0,109.5,13.58,1.88,197.5
"2010-11-18 00:22:00",345945,6.144,236.2,6.617,1.19,5.245,100.7135,1.12,2.187,49.95,0,109.5,13.58,1.88,198.2
"2010-11-18 00:22:30",345946,7.005,241.5,4.985,0.999,6.956,100.7144,1.122,2.241,49.89,0,109.5,13.59,1.88,203.5
"2010-11-18 00:23:00",345947,6.931,238.6,5.864,1.041,6.861,100.7144,1.122,2.194,50.09,0,109.5,13.59,1.88,200.6
"2010-11-18 00:23:30",345948,7.23,237.8,4,0.558,7.66,100.7135,1.12,2.266,50.26,0,109.5,13.59,1.88,199.8
"2010-11-18 00:24:00",345949,6.962,234.8,5.991,0.982,6.065,100.7135,1.12,2.205,50.3,0,109.5,13.59,1.88,196.8
"2010-11-18 00:24:30",345950,6.508,229.3,6.528,1.291,4.88,100.7051,1.098,2.137,50.34,0,109.5,13.59,1.85,191.3
"2010-11-18 00:25:00",345951,6.346,234.1,6.46,1.252,5.357,100.6949,1.072,2.091,50.27,0,109.5,13.59,1.83,196.1
"2010-11-18 00:25:30",345952,6.723,240.4,5.035,1.066,6.503,100.6841,1.045,2.156,50.41,0,109.5,13.59,1.80,202.4
"2010-11-18 00:26:00",345953,7.272,242,3.919,0.376,7.334,100.6796,1.033,2.167,50.56,0,109.5,13.59,1.79,204.0
"2010-11-18 00:26:30",345954,7.237,241.4,3.163,0.814,7.329,100.6796,1.033,2.23,50.64,0,109.6,13.59,1.79,203.4
"2010-11-18 00:27:00",345955,6.869,236.1,6.102,1.093,6.438,100.6796,1.033,2.17,50.66,0,109.5,13.59,1.79,198.1
"2010-11-18 00:27:30",345956,5.963,232.6,6.822,1.241,4.431,100.6796,1.033,2.046,50.69,0,109.6,13.59,1.79,194.6
"2010-11-18 00:28:00",345957,6.34,230.4,6.734,1.264,4.449,100.6784,1.03,2.036,50.71,0,109.5,13.59,1.79,192.4
"2010-11-18 00:28:30",345958,6.892,231.2,6.397,1.167,5.877,100.6699,1.009,2.06,50.79,0,109.5,13.59,1.76,193.2
"2010-11-18 00:29:00",345959,7.232,234.3,5.435,1.095,6.954,100.6626,0.99,2.138,51.04,0,109.5,13.6,1.75,196.3
"2010-11-18 00:29:30",345960,7.802,235.4,4.083,0.557,7.472,100.6615,0.987,2.164,50.98,0,109.5,13.59,1.74,197.4
"2010-11-18 00:30:00",345961,7.897,231,3.963,0.88,7.43,100.662,0.989,2.176,50.99,0,109.6,13.59,1.74,193.0
"2010-11-18 00:30:30",345962,7.998,229.3,4.728,0.733,7.332,100.6521,0.963,2.149,50.97,0,109.5,13.59,1.72,191.3
"2010-11-18 00:31:00",345963,7.743,232.3,4.545,0.728,6.975,100.6544,0.969,2.152,51.09,0,109.5,13.59,1.72,194.3
"2010-11-18 00:31:30",345964,8.05,233.2,3.257,0.684,6.865,100.6651,0.997,2.146,51.08,0,109.5,13.59,1.75,195.2
"2010-11-18 00:32:00",345965,7.773,233.7,3.5,0.741,6.704,100.679,1.032,2.164,51.04,0,109.5,13.59,1.79,195.7
"2010-11-18 00:32:30",345966,7.468,237.4,3.273,0.832,6.556,100.6796,1.033,2.159,51.03,0,109.5,13.59,1.79,199.4
"2010-11-18 00:33:00",345967,7.205,240.2,3.117,0.842,6.505,100.6901,1.06,2.202,51.01,0,109.5,13.59,1.82,202.2
"2010-11-18 00:33:30",345968,6.438,236.4,6.379,1.237,5.021,100.7102,1.111,2.11,50.78,0,109.5,13.59,1.87,198.4
"2010-11-18 00:34:00",345969,5.053,226.9,1.444,0.174,2.074,100.7135,1.12,1.93,50.41,0,109.5,13.62,1.88,188.9
"2010-11-18 00:34:30",345970,5.594,228.2,4.103,0.985,3.789,100.7135,1.12,2.069,50.44,0,109.6,13.59,1.88,190.2
"2010-11-18 00:35:00",345971,7.488,234.2,4.399,0.791,7.701,100.7135,1.12,2.262,50.55,0,109.5,13.59,1.88,196.2
"2010-11-18 00:35:30",345972,7.602,234.4,3.335,0.667,8.11,100.7135,1.12,2.263,50.54,0,109.5,13.59,1.88,196.4
"2010-11-18 00:36:00",345973,7.902,236.1,3.469,0.664,7.869,100.7135,1.12,2.268,50.52,0,109.5,13.59,1.88,198.1
"2010-11-18 00:36:30",345974,7.765,236.7,1.849,0.836,7.45,100.7135,1.12,2.268,50.61,0,109.5,13.59,1.88,198.7
"2010-11-18 00:37:00",345975,7.741,238.5,3.428,0.869,7.239,100.7135,1.12,2.266,50.6,0,109.5,13.59,1.88,200.5
"2010-11-18 00:37:30",345976,7.689,237.1,3.163,0.855,6.926,100.7135,1.12,2.258,50.59,0,109.5,13.58,1.88,199.1
"2010-11-18 00:38:00",345977,7.823,238.5,3.495,0.69,6.93,100.7133,1.119,2.256,50.64,0,109.5,13.58,1.88,200.5
"2010-11-18 00:38:30",345978,7.859,237.1,3.667,0.788,6.541,100.7135,1.12,2.247,50.66,0,109.5,13.58,1.88,199.1
"2010-11-18 00:39:00",345979,8.11,234.6,3.816,0.758,6.466,100.7124,1.117,2.251,50.67,0,109.6,13.59,1.87,196.6
"2010-11-18 00:39:30",345980,7.827,233.7,3.671,0.77,6.363,100.713,1.119,2.243,50.73,0,109.5,13.59,1.87,195.7
"2010-11-18 00:40:00",345981,7.871,234.2,3.378,0.618,6.388,100.7116,1.115,2.255,50.74,0,109.5,13.59,1.87,196.2
"2010-11-18 00:40:30",345982,7.842,232.4,3.152,0.81,6.316,100.7113,1.114,2.236,50.68,0,109.5,13.59,1.87,194.4
"2010-11-18 00:41:00",345983,7.832,233.5,3.63,0.679,6.508,100.7135,1.12,2.247,50.67,0,109.5,13.59,1.88,195.5
"2010-11-18 00:41:30",345984,6.706,229.4,5.708,1.158,4.335,100.7135,1.12,2.082,50.45,0,109.5,13.59,1.88,191.4
"2010-11-18 00:42:00",345985,6.132,224.9,5.268,0.978,3.332,100.7135,1.12,2.085,50.41,0,109.5,13.59,1.88,186.9
"2010-11-18 00:42:30",345986,6.758,222.3,7.082,1.318,4.725,100.7124,1.117,2.052,50.29,0,109.5,13.59,1.87,184.3
"2010-11-18 00:43:00",345987,8.18,228.2,5.53,0.404,7.878,100.6988,1.082,2.246,50.5,0,109.5,13.59,1.84,190.2
"2010-11-18 00:43:30",345988,8.11,234.1,2.87,0.838,8.02,100.6954,1.074,2.24,50.52,0,109.5,13.59,1.83,196.1
"2010-11-18 00:44:00",345989,8.15,232.7,2.435,0.774,7.806,100.6943,1.071,2.234,50.53,0,109.5,13.59,1.83,194.7
"2010-11-18 00:44:30",345990,7.799,234.6,3.493,0.86,7.501,100.6946,1.072,2.231,50.55,0,109.5,13.59,1.83,196.6
"2010-11-18 00:45:00",345991,7.723,232.1,3.577,0.825,7.338,100.6937,1.069,2.245,50.53,0,109.5,13.59,1.83,194.1
"2010-11-18 00:45:30",345992,7.385,234.2,3.21,0.88,7.09,100.6937,1.069,2.234,50.53,0,109.6,13.59,1.83,196.2
"2010-11-18 00:46:00",345993,7.194,235.1,3.622,0.73,6.983,100.6954,1.074,2.231,50.52,0,109.6,13.59,1.83,197.1
"2010-11-18 00:46:30",345994,6.881,236,3.658,0.833,6.626,100.7039,1.095,2.247,50.51,0,109.6,13.59,1.85,198.0
"2010-11-18 00:47:00",345995,5.58,236.8,5.219,1.305,4.839,100.7135,1.12,2.16,50.64,0,109.5,13.59,1.88,198.8
"2010-11-18 00:47:30",345996,3.978,229.3,2.772,0.148,2.402,100.7339,1.172,1.981,50.39,0,109.5,13.62,1.93,191.3
"2010-11-18 00:48:00",345997,4.97,235.8,6.948,1.254,4.793,100.7543,1.224,2.163,50.36,0,109.5,13.59,1.98,197.8
"2010-11-18 00:48:30",345998,5.55,235.5,6.8,1.388,5.908,100.7798,1.289,2.279,50.19,0,109.5,13.59,2.05,197.5
"2010-11-18 00:49:00",345999,6.735,238.5,3.669,0.676,7.915,100.7815,1.293,2.376,50.05,0,109.5,13.6,2.05,200.5
"2010-11-18 00:49:30",346000,6.596,234.8,4.64,0.648,7.908,100.7815,1.293,2.391,49.87,0,109.5,13.59,2.05,196.8
"2010-11-18 00:50:00",346001,7.2,235.3,4.905,0.343,7.556,100.7688,1.261,2.362,49.8,0,109.6,13.59,2.02,197.3
"2010-11-18 00:50:30",346002,5.661,224.1,5.302,1.033,4.357,100.754,1.223,2.29,49.74,0,109.6,13.59,1.98,186.1
"2010-11-18 00:51:00",346003,5.894,224.9,6.273,1.088,4.475,100.7475,1.207,2.173,49.71,0,109.6,13.59,1.96,186.9
"2010-11-18 00:51:30",346004,6.187,232.1,6.823,1.226,5.196,100.7475,1.207,2.227,49.87,0,109.6,13.59,1.96,194.1
"2010-11-18 00:52:00",346005,6.812,229.2,6.678,1.166,6.568,100.7444,1.199,2.319,49.94,0,109.6,13.59,1.95,191.2
"2010-11-18 00:52:30",346006,7.268,232.5,4.293,0.667,7.778,100.7266,1.153,2.347,50.08,0,109.6,13.59,1.91,194.5
"2010-11-18 00:53:00",346007,7.175,232.7,4.543,0.682,7.592,100.7187,1.133,2.319,50.13,0,109.5,13.59,1.89,194.7
"2010-11-18 00:53:30",346008,6.659,233.4,6.501,1.223,6.266,100.7144,1.122,2.254,50.1,0,109.5,13.59,1.88,195.4
"2010-11-18 00:54:00",346009,5.987,231.6,7.367,1.228,4.326,100.7135,1.12,2.068,50,0,109.6,13.59,1.88,193.6
"2010-11-18 00:54:30",346010,6.187,229.5,5.94,1.189,5.286,100.7135,1.12,2.109,50.13,0,109.5,13.59,1.88,191.5
"2010-11-18 00:55:00",346011,5.832,234.7,5.946,1.031,5.627,100.7118,1.116,2.188,50.25,0,109.6,13.59,1.87,196.7
"2010-11-18 00:55:30",346012,6.858,243.1,4.69,0.662,7.628,100.711,1.114,2.257,50.37,0,109.6,13.59,1.87,205.1
"2010-11-18 00:56:00",346013,6.913,244.6,4.897,0.551,7.41,100.7135,1.12,2.269,50.44,0,109.5,13.59,1.88,206.6
"2010-11-18 00:56:30",346014,5.834,244.2,5.793,1.091,5.899,100.7135,1.12,2.209,50.31,0,109.6,13.59,1.88,206.2
"2010-11-18 00:57:00",346015,5.372,238.1,8.01,1.15,4.716,100.7135,1.12,2.205,50.31,0,109.6,13.59,1.88,200.1
"2010-11-18 00:57:30",346016,4.58,230.3,5.009,0.848,3.723,100.7135,1.12,2.121,50.22,0,109.6,13.6,1.88,192.3
"2010-11-18 00:58:00",346017,5.929,234.2,6.45,1.082,5.973,100.7135,1.12,2.137,50.34,0,109.6,13.6,1.88,196.2
"2010-11-18 00:58:30",346018,6.2,235.5,6.092,0.853,6.942,100.7135,1.12,2.246,50.53,0,109.5,13.6,1.88,197.5
"2010-11-18 00:59:00",346019,6.23,230.6,5.281,0.682,6.939,100.7056,1.1,2.226,50.63,0,109.5,13.6,1.86,192.6
"2010-11-18 00:59:30",346020,5.292,222.6,6.203,1.213,5.602,100.6881,1.055,2.178,50.44,0,109.6,13.6,1.81,184.6
"2010-11-18 01:00:00",346021,5.267,217.7,6.388,1.16,4.846,100.6719,1.014,2.077,49.83,0,109.6,13.6,1.77,179.7
"2010-11-18 01:00:30",346022,4.848,214.4,5.611,1.204,3.983,100.6498,0.958,1.999,48.82,0,109.6,13.6,1.71,176.4
"2010-11-18 01:01:00",346023,5.849,214,5.869,1.14,5.366,100.6447,0.945,2.048,46.84,0,109.5,13.6,1.70,176.0
"2010-11-18 01:01:30",346024,5.721,214.5,5.596,1.144,6.157,100.628,0.902,2.052,46.76,0,109.6,13.6,1.66,176.5
"2010-11-18 01:02:00",346025,5.783,210.7,7.097,1.056,5.966,100.6187,0.878,2.024,45.28,0,109.6,13.6,1.63,172.7
"2010-11-18 01:02:30",346026,6.138,209.4,5.193,0.992,6.004,100.6116,0.86,2.017,44.53,0,109.6,13.6,1.62,171.4
"2010-11-18 01:03:00",346027,5.59,203.5,5.898,1.155,4.324,100.6116,0.86,1.885,42.55,0,109.6,13.6,1.62,165.5
"2010-11-18 01:03:30",346028,6.08,205.7,5.93,1.178,5.546,100.5992,0.828,1.958,41.88,0,109.6,13.6,1.58,167.7
"2010-11-18 01:04:00",346029,6.565,207.9,5.778,1.078,5.899,100.5915,0.809,1.926,42.08,0,109.6,13.6,1.56,169.9
"2010-11-18 01:04:30",346030,5.816,205.6,5.855,1.238,5.03,100.5856,0.794,1.866,43.39,0,109.6,13.6,1.55,167.6
"2010-11-18 01:05:00",346031,5.933,205.7,5.937,1.309,5.178,100.585,0.792,1.921,43.86,0,109.6,13.6,1.55,167.7
"2010-11-18 01:05:30",346032,6.599,206.9,5.881,1.1,6.114,100.5793,0.778,1.923,43.22,0,109.6,13.6,1.53,168.9
"2010-11-18 01:06:00",346033,6.713,209,4.864,0.962,6.753,100.5785,0.776,1.926,43.44,0,109.6,13.6,1.53,171.0
"2010-11-18 01:06:30",346034,6.432,207.5,5.157,1.119,6.078,100.5779,0.774,1.949,44.17,0,109.5,13.6,1.53,169.5
"2010-11-18 01:07:00",346035,6.679,205.6,5.905,1.172,5.747,100.5776,0.773,1.876,44.55,0,109.5,13.6,1.53,167.6
"2010-11-18 01:07:30",346036,6.782,207.9,5.384,1.107,5.685,100.5779,0.774,1.859,43.84,0,109.5,13.6,1.53,169.9
"2010-11-18 01:08:00",346037,6.422,205,5.784,1.21,4.853,100.5776,0.773,1.883,44.53,0,109.6,13.6,1.53,167.0
"2010-11-18 01:08:30",346038,6.131,205,6.179,1.177,4.827,100.5776,0.773,1.857,45.05,0,109.6,13.6,1.53,167.0
"2010-11-18 01:09:00",346039,6.934,210,4.992,0.998,6.553,100.5776,0.773,1.934,45.58,0,109.6,13.6,1.53,172.0
"2010-11-18 01:09:30",346040,6.846,210.6,4.535,0.941,6.685,100.5776,0.773,1.93,45.95,0,109.5,13.6,1.53,172.6
"2010-11-18 01:10:00",346041,6.942,208,4.907,0.942,6.374,100.5776,0.773,1.888,45.18,0,109.5,13.6,1.53,170.0
"2010-11-18 01:10:30",346042,6.665,205,5.368,1.047,5.919,100.5793,0.778,1.842,45.09,0,109.5,13.6,1.53,167.0
"2010-11-18 01:11:00",346043,4.956,195.8,4.237,0.88,3.181,100.5833,0.788,1.786,45.89,0,109.5,13.6,1.54,157.8
"2010-11-18 01:11:30",346044,5.903,201,6.245,1.152,5.401,100.5904,0.806,1.831,46.9,0,109.5,13.6,1.56,163.0
"2010-11-18 01:12:00",346045,6.033,204.9,7.772,1.174,5.876,100.5972,0.823,1.885,47.13,0,109.5,13.6,1.58,166.9
"2010-11-18 01:12:30",346046,6.474,205.9,4.35,0.672,7.363,100.6085,0.852,1.985,47.1,0,109.5,13.6,1.61,167.9
"2010-11-18 01:13:00",346047,6.532,202.6,3.912,0.754,7.044,100.6116,0.86,1.974,46.22,0,109.5,13.6,1.62,164.6
"2010-11-18 01:13:30",346048,6.238,201.7,5.838,1.116,5.784,100.6116,0.86,1.878,46.04,0,109.5,13.6,1.62,163.7
"2010-11-18 01:14:00",346049,4.64,194.1,3.257,0.732,2.357,100.6116,0.86,1.74,46.18,0,109.5,13.6,1.62,156.1
"2010-11-18 01:14:30",346050,5.047,197.9,6.051,1.053,3.823,100.6116,0.86,1.888,46.82,0,109.5,13.6,1.62,159.9
"2010-11-18 01:15:00",346051,6.298,203.7,6.196,0.996,6.534,100.6116,0.86,1.93,47.17,0,109.5,13.6,1.62,165.7
"2010-11-18 01:15:30",346052,6.734,205.9,3.223,0.691,7.491,100.6116,0.86,2.005,47.75,0,109.5,13.6,1.62,167.9
"2010-11-18 01:16:00",346053,6.735,207.9,3.391,0.621,7.121,100.6116,0.86,1.997,48.36,0,109.5,13.6,1.62,169.9
"2010-11-18 01:16:30",346054,6.247,207.5,5.814,0.993,6.019,100.6116,0.86,1.874,48.39,0,109.5,13.6,1.62,169.5
"2010-11-18 01:17:00",346055,4.702,199.8,3.569,0.618,2.227,100.6116,0.86,1.698,49.17,0,109.5,13.6,1.62,161.8
"2010-11-18 01:17:30",346056,5.187,200.5,6.542,1.147,3.911,100.6116,0.86,1.854,49.17,0,109.5,13.6,1.62,162.5
"2010-11-18 01:18:00",346057,6.08,209.9,6.25,1.149,6.332,100.6116,0.86,1.946,48.86,0,109.5,13.6,1.62,171.9
"2010-11-18 01:18:30",346058,6.427,209.5,5.146,0.766,6.953,100.6116,0.86,2.001,48.9,0,109.5,13.6,1.62,171.5
"2010-11-18 01:19:00",346059,6.207,215.5,4.619,0.677,6.954,100.6116,0.86,2.018,49.21,0,109.5,13.6,1.62,177.5
"2010-11-18 01:19:30",346060,5.795,209.2,6.511,1.121,5.905,100.6116,0.86,1.944,49.42,0,109.5,13.6,1.62,171.2
"2010-11-18 01:20:00",346061,5.019,204.3,5.34,0.994,3.291,100.6116,0.86,1.744,48.78,0,109.5,13.6,1.62,166.3
"2010-11-18 01:20:30",346062,5.314,205.9,6.76,1.184,4.671,100.6116,0.86,1.857,49.12,0,109.5,13.6,1.62,167.9
"2010-11-18 01:21:00",346063,5.638,207.3,6.746,1.069,5.477,100.6122,0.861,1.926,49.28,0,109.5,13.6,1.62,169.3
"2010-11-18 01:21:30",346064,6.013,207,5.412,0.978,7.018,100.6164,0.872,2.025,49.56,0,109.5,13.6,1.63,169.0
"2010-11-18 01:22:00",346065,6.111,211.7,3.111,0.682,7.151,100.6218,0.886,2.036,49.94,0,109.5,13.6,1.64,173.7
"2010-11-18 01:22:30",346066,4.829,210.6,6.089,1.297,4.882,100.6261,0.897,1.982,50.33,0,109.5,13.6,1.65,172.6
"2010-11-18 01:23:00",346067,3.528,202.5,2.526,0.101,2.205,100.6292,0.905,1.81,50.51,0,109.5,13.63,1.66,164.5
"2010-11-18 01:23:30",346068,4.753,213.3,3.708,1.379,4.4,100.6334,0.916,1.858,50.42,0,109.5,13.6,1.67,175.3
"2010-11-18 01:24:00",346069,4.35,215.3,11.52,1.09,4.327,100.6453,0.946,1.967,50.57,0,109.5,13.6,1.70,177.3
"2010-11-18 01:24:30",346070,5.835,226.3,5.564,0.785,7.029,100.6456,0.947,2.05,50.86,0,109.5,13.59,1.70,188.3
"2010-11-18 01:25:00",346071,6.058,227.1,4.614,0.529,7.294,100.6462,0.948,2.082,50.82,0,109.6,13.6,1.70,189.1
"2010-11-18 01:25:30",346072,5.885,222.9,5.015,0.923,6.947,100.6493,0.956,2.113,50.82,0,109.5,13.59,1.71,184.9
"2010-11-18 01:26:00",346073,5.115,215.3,5.525,1.248,4.987,100.6555,0.972,1.965,50.71,0,109.5,13.6,1.73,177.3
"2010-11-18 01:26:30",346074,4.773,214.4,6.367,1.058,3.731,100.6558,0.973,1.971,50.77,0,109.5,13.59,1.73,176.4
"2010-11-18 01:27:00",346075,5.039,215.1,5.322,1.127,4.204,100.6456,0.947,1.961,51.1,0,109.5,13.59,1.70,177.1
"2010-11-18 01:27:30",346076,6.627,231.2,4.592,0.778,7.228,100.6456,0.947,2.12,51.11,0,109.5,13.6,1.70,193.2
"2010-11-18 01:28:00",346077,7.133,233.7,4.088,0.671,7.319,100.6456,0.947,2.112,51.03,0,109.5,13.6,1.70,195.7
"2010-11-18 01:28:30",346078,7.026,231.7,2.844,0.772,7.641,100.6459,0.947,2.129,50.85,0,109.5,13.6,1.70,193.7
"2010-11-18 01:29:00",346079,6.601,229.8,5.923,1.109,6.491,100.6467,0.95,2.024,50.68,0,109.5,13.6,1.70,191.8
"2010-11-18 01:29:30",346080,5.201,222.9,5.32,1.004,3.317,100.649,0.955,1.906,50.65,0,109.5,13.6,1.71,184.9
"2010-11-18 01:30:00",346081,5.769,228.5,6.643,1.208,5.404,100.6501,0.958,2.018,50.93,0,109.5,13.6,1.71,190.5
"2010-11-18 01:30:30",346082,6.368,231.8,5.253,1.16,6.214,100.6535,0.967,2.049,50.84,0,109.5,13.6,1.72,193.8
"2010-11-18 01:31:00",346083,6.632,231.1,4.771,0.847,7.059,100.6532,0.966,2.077,50.72,0,109.5,13.6,1.72,193.1
"2010-11-18 01:31:30",346084,6.093,227.8,6.736,1.163,6.617,100.651,0.96,2.057,50.71,0,109.5,13.6,1.72,189.8
"2010-11-18 01:32:00",346085,6.072,227.4,5.602,1.077,6.523,100.647,0.95,2.06,50.82,0,109.5,13.6,1.71,189.4
"2010-11-18 01:32:30",346086,5.844,225.7,6.264,1.191,5.731,100.6501,0.958,1.974,50.76,0,109.5,13.6,1.71,187.7
"2010-11-18 01:33:00",346087,5.871,228.6,6.788,1.165,5.786,100.66,0.984,2.006,50.85,0,109.5,13.6,1.74,190.6
"2010-11-18 01:33:30",346088,6.145,230.4,6.228,1.187,5.926,100.6671,1.002,2.071,50.95,0,109.5,13.6,1.76,192.4
"2010-11-18 01:34:00",346089,6.479,234.5,5.052,0.984,6.948,100.6793,1.033,2.099,50.93,0,109.5,13.6,1.79,196.5
"2010-11-18 01:34:30",346090,6.407,235.9,5.661,1.128,6.334,100.6813,1.038,2.099,50.92,0,109.5,13.6,1.79,197.9
"2010-11-18 01:35:00",346091,6.599,238.5,6.011,1.123,6.532,100.6949,1.072,2.091,50.92,0,109.5,13.6,1.83,200.5
"2010-11-18 01:35:30",346092,6.393,239.1,5.796,1.194,5.868,100.711,1.114,2.141,50.98,0,109.5,13.6,1.87,201.1
"2010-11-18 01:36:00",346093,6.731,240.3,5.678,1.09,6.387,100.7135,1.12,2.12,50.98,0,109.5,13.6,1.88,202.3
"2010-11-18 01:36:30",346094,6.617,240.9,5.683,1.142,6.617,100.7155,1.125,2.173,50.93,0,109.5,13.6,1.88,202.9
"2010-11-18 01:37:00",346095,6.798,239.6,5.451,1.079,6.387,100.7274,1.155,2.194,50.8,0,109.5,13.6,1.91,201.6
"2010-11-18 01:37:30",346096,6.893,239.6,5.226,1.122,6.466,100.73,1.162,2.197,50.65,0,109.5,13.6,1.92,201.6
"2010-11-18 01:38:00",346097,6.886,237.3,4.915,1.12,6.79,100.7402,1.188,2.256,50.94,0,109.5,13.6,1.94,199.3
"2010-11-18 01:38:30",346098,7.304,235.6,5.117,0.985,7.332,100.7515,1.217,2.305,51.27,0,109.5,13.6,1.97,197.6
"2010-11-18 01:39:00",346099,7.205,235.4,5.652,1.022,7.021,100.7795,1.288,2.273,51.04,0,109.5,13.6,2.04,197.4
"2010-11-18 01:39:30",346100,7.046,235.4,5.423,1.066,6.795,100.7974,1.334,2.339,50.82,0,109.5,13.6,2.09,197.4
"2010-11-18 01:40:00",346101,6.674,233.2,6.204,1.256,6.083,100.8152,1.379,2.359,50.65,0,109.5,13.6,2.14,195.2
"2010-11-18 01:40:30",346102,7.408,235.9,5.703,1.117,6.857,100.8155,1.38,2.417,50.46,0,109.6,13.59,2.14,197.9
"2010-11-18 01:41:00",346103,8.1,239.7,4.145,0.565,7.762,100.8212,1.395,2.475,50.43,0,109.5,13.59,2.15,201.7
"2010-11-18 01:41:30",346104,8.09,238,4.146,0.557,7.969,100.8347,1.429,2.501,50.39,0,109.5,13.59,2.19,200.0
"2010-11-18 01:42:00",346105,7.279,231.2,6.326,1.107,6.672,100.8492,1.466,2.448,50.18,0,109.5,13.59,2.22,193.2
"2010-11-18 01:42:30",346106,6.817,230.8,6.195,1.149,7.023,100.8594,1.492,2.567,50.15,0,109.5,13.59,2.25,192.8
"2010-11-18 01:43:00",346107,5.875,225.2,6.01,1.092,5.635,100.8897,1.569,2.484,49.62,0,109.5,13.59,2.33,187.2
"2010-11-18 01:43:30",346108,6.46,228.1,6.096,1.162,6.739,100.9273,1.665,2.632,49,0,109.5,13.59,2.42,190.1
"2010-11-18 01:44:00",346109,6.767,233.4,5.388,1.081,7.195,100.9591,1.746,2.69,49.05,0,109.5,13.6,2.50,195.4
"2010-11-18 01:44:30",346110,7.254,235.4,3.879,0.541,7.626,100.9658,1.764,2.805,49.41,0,109.5,13.6,2.52,197.4
"2010-11-18 01:45:00",346111,6.557,230.9,6.054,1.273,6.46,100.9673,1.767,2.714,49.08,0,109.5,13.6,2.53,192.9
"2010-11-18 01:45:30",346112,6.051,235.8,5.11,1.302,6.034,100.9868,1.817,2.69,48.61,0,109.6,13.6,2.58,197.8
"2010-11-18 01:46:00",346113,6.436,239.6,6.564,1.295,6.533,100.9987,1.847,2.849,49,0,109.5,13.6,2.61,201.6
"2010-11-18 01:46:30",346114,7.01,240.6,5.943,1.188,6.281,100.9854,1.814,2.813,49.03,0,109.6,13.6,2.57,202.6
"2010-11-18 01:47:00",346115,7.415,242.9,5.304,1.096,6.975,100.98,1.8,2.904,49.04,0,109.6,13.6,2.56,204.9
"2010-11-18 01:47:30",346116,7.691,244,4.558,0.848,7.259,100.9656,1.763,2.889,49.23,0,109.5,13.6,2.52,206.0
"2010-11-18 01:48:00",346117,7.325,242.7,5.517,1.087,6.941,100.9622,1.754,2.813,49.3,0,109.5,13.6,2.51,204.7
"2010-11-18 01:48:30",346118,7.322,244.9,5.421,1.085,6.919,100.9551,1.736,2.837,49.25,0,109.6,13.6,2.49,206.9
"2010-11-18 01:49:00",346119,6.412,236.9,6.234,1.182,4.587,100.95,1.723,2.643,48.95,0,109.6,13.6,2.48,198.9